Regional Weather Roundup
Issued by NWS

Home | Current Version | Previous Version | Text Only | Print | Product List | Glossary Off
Versions: 1 2 3 4 5 6 7 8 9 10 11 12 13 14 15 16 17 18 19 20 21 22 23 24 25 26 27 28 29 30 31 32 33 34 35 36 37 38 39 40 41 42 43 44 45 46 47 48 49 50

000
ASUS43 KMPX 110701
RWRMN
WEATHER ROUNDUP FOR MINNESOTA
NATIONAL WEATHER SERVICE TWIN CITIES/CHANHASSEN MN
200 AM CDT FRI JUL 11 2014


NOTE: "FAIR" INDICATES FEW OR NO CLOUDS BELOW 12,000 FEET WITH NO
SIGNIFICANT WEATHER AND/OR OBSTRUCTIONS TO VISIBILITY. N/A MEANS
CURRENT SKY AND/OR WEATHER CONDITIONS ARE NOT AVAILABLE.

MNZ060>063-068>070-110800-
   Twin Cities Metro

CITY           SKY/WX    TMP DP  RH WIND       PRES   REMARKS
TWIN CITIES    CLOUDY    74  60  61 S13G22    30.00S
ST PAUL        LGT RAIN  72  60  66 S13G21    30.01R
CRYSTAL        LGT RAIN  71  61  70 S12G20    29.97F
BLAINE         RAIN      72  63  73 S15G24    29.99S
LAKEVILLE      CLOUDY    68  61  77 S10       30.01S
EDEN PRAIRIE   CLOUDY    72  60  66 S13G22    29.98F
SOUTH ST PAUL  CLOUDY    73  58  59 S8        30.01S
LAKE ELMO      CLOUDY    72  59  64 S13       30.02S
$$
MNZ001>005-007-008-013>017-022>024-027-028-110800-
   Northwest Minnesota

CITY           SKY/WX    TMP DP  RH WIND       PRES   REMARKS
BEMIDJI        MOCLDY    66  65  96 SE5       29.88F
HALLOCK        PTCLDY    68  64  88 S8        29.80F
ROSEAU         CLEAR     66  61  82 S6        29.83F
WARROAD        CLEAR     66  63  88 S5        29.84F
THIEF RVR FALL   N/A    N/A N/A N/A MISG        N/A
CROOKSTON      CLEAR     66  64  94 S5        29.81F
FOSSTON        CLEAR     66  63  88 SE6       29.85F
DETROIT LAKES  CLOUDY    70  68  94 S9        29.88S
MOORHEAD       PTCLDY    72  72 100 SE9       29.83S
PARK RAPIDS    LGT RAIN  68  67  96 SE10      29.88F
$$
MNZ006-009>011-018-025>026-110800-
   North Central Minnesota

CITY           SKY/WX    TMP DP  RH WIND       PRES   REMARKS
BAUDETTE       PTCLDY    67  62  84 S7        29.87F
FLAG ISLAND    CLEAR     68  64  88 S7        29.83S FOG
INTL FALLS     MOCLDY    66  61  84 S5        29.90F
WASKISH        PTCLDY    68  64  88 SE6       29.87F
LONGVILLE      CLOUDY    66  66 100 S8        29.91F
GRAND RAPIDS   CLOUDY    66  63  88 SE7       29.94F
CRANE LAKE     CLOUDY    63  61  94 CALM      29.95S
ORR            CLOUDY    68  59  73 S8G17     29.92S
COOK           LGT RAIN  64  63  94 S7        29.96F
$$
MNZ012-019>021-037-110800-
   Northeast Minnesota

CITY           SKY/WX    TMP DP  RH WIND       PRES   REMARKS
DULUTH         LGT RAIN  62  56  80 SE3       30.00S
ELY            MOCLDY    64  55  72 S6        29.97F
HIBBING        LGT RAIN  65  61  87 S6        29.97S
EVELETH        LGT RAIN  63  61  94 S8        29.99S
DULUTH HARBOR  LGT RAIN  55  50  82 NE3       30.01S
TWO HARBORS    CLOUDY    59  54  82 CALM      29.98F
SILVER BAY     MOCLDY    55  55 100 CALM      29.98F
GRAND MARAIS     N/A     50  46  86 NE3       30.00S
G MARAIS ARPRT PTCLDY    52  46  82 CALM      30.04S
$$
MNZ029>031-032-039>041-046>048-054>057-064-110800-
   West Central Minnesota

CITY           SKY/WX    TMP DP  RH WIND       PRES   REMARKS
FERGUS FALLS   CLOUDY    70  66  88 SE7       29.83F
WHEATON        CLEAR     72  64  78 S12G17    29.84R
MORRIS         PTCLDY    73  66  78 S15       29.85S
ALEXANDRIA     CLOUDY    71  65  81 S17G25    29.88F
ELBOW LAKE     CLOUDY    70  66  88 S14       29.84F
WADENA         CLOUDY    66  64  94 S15       29.90F
GLENWOOD       PTCLDY    72  64  78 S18G26    29.88F
APPLETON       PTCLDY    75  64  69 S9        29.86F
BENSON         MOCLDY    73  64  73 SW15G23   29.88S
ORTONVILLE     PTCLDY    73  64  73 S7        29.85S
MADISON        PTCLDY    77  66  69 S15       29.87S
WILLMAR        FAIR      73  61  64 S5        29.92F
$$
MNZ033>034-036-042>043-049>051-058-059-110800-
   Central Minnesota

CITY           SKY/WX    TMP DP  RH WIND       PRES   REMARKS
ST CLOUD       CLOUDY    74  60  61 S15G21    29.92F
SAUK CENTRE    PTSUNNY   71  63  74 S18G24    29.89F
PAYNESVILLE    RAIN      69  59  69 SE12G20   29.92F
AITKIN         RAIN      70  64  83 S5        29.93F
PINE RIVER     LGT RAIN  66  66 100 S8        29.95F
BRAINERD       TSTM      72  65  78 CALM      29.93S
STAPLES        TSTM      66  64  94 E3        29.90F
LONG PRAIRIE   LGT RAIN  68  63  83 SE15G25   29.90F
LITTLE FALLS   CLOUDY    68  63  83 SE7       29.91F
LITCHFIELD     MOCLDY    73  61  64 S10G16    29.94F
BUFFALO        CLOUDY    73  59  63 S10G18    29.97F
MAPLE LAKE     CLOUDY    73  62  70 S9        29.95F
$$
MNZ037-044-045-052-053-110800-
   East Central Minnesota

CITY           SKY/WX    TMP DP  RH WIND       PRES   REMARKS
PRINCETON      CLOUDY    75  61  60 S15       29.95F
MORA           LGT RAIN  70  59  68 S3        29.98F
CAMBRIDGE      CLOUDY    77  61  57 S10       29.95F
RUSH CITY      CLOUDY    69  61  74 SE7       29.98F
MOOSE LAKE     LGT RAIN  63  61  94 CALM      29.97F
HINCKLEY       LGT RAIN  70  63  78 S5        29.98F
CLOQUET        RAIN      57  55  94 CALM      30.00F
MCGREGOR       CLOUDY    66  63  88 SE5       29.97F
$$
MNZ071>073-080-081-089-090-097-098-110800-
   Southwest Minnesota

CITY           SKY/WX    TMP DP  RH WIND       PRES   REMARKS
MONTEVIDEO     CLOUDY    73  66  78 SW13G18   29.90F
GRANITE FALLS  MOCLDY    73  64  71 S14       29.92F
CANBY          CLOUDY    75  66  72 S18G26    29.88F
MARSHALL       MOCLDY    73  64  73 S22G32    29.90F
REDWOOD FALLS  MOCLDY    74  61  63 S20       29.93F
OLIVIA         MOCLDY    73  61  64 S13       29.93F
PIPESTONE      CLOUDY    72  64  78 S17G24    29.96R
WINDOM         CLOUDY    73  61  64 S15G21    29.99R
WORTHINGTON    CLOUDY    70  63  78 S15G23    30.00R
JACKSON        CLOUDY    72  57  60 S17G25    30.00F
TRACY          CLOUDY    73  64  72 S15G22    29.95S
SLAYTON        CLOUDY    70  64  79 S16G23    29.98R
$$
MNZ065>067-074>077-082>085-091>093-110800-
   South Central Minnesota

CITY           SKY/WX    TMP DP  RH WIND       PRES   REMARKS
MANKATO        CLOUDY    72  57  60 S13       30.00F
NEW ULM        CLOUDY    72  61  68 S14       29.97F
ST JAMES       CLOUDY    72  61  68 S14G20    30.00S
FAIRMONT       CLOUDY    72  57  60 S15       30.02R
GLENCOE        CLOUDY    73  58  57 S8        29.97F
FARIBAULT      CLOUDY    72  57  60 S10       30.03F
OWATONNA       CLOUDY    72  57  60 S13       30.05S
WASECA         CLOUDY    72  55  56 S10       30.06R
ALBERT LEA     MOCLDY    72  57  60 S12G18    30.05
$$
MNZ078>079-086>088-094>096-110800-
   Southeast Minnesota

CITY           SKY/WX    TMP DP  RH WIND       PRES   REMARKS
ROCHESTER      LGT RAIN  68  58  70 S13       30.09R
RED WING       CLOUDY    73  57  56 S9        30.02S
STANTON        LGT RAIN  69  61  75 S9G17     30.00S
DODGE CENTER   CLOUDY    70  59  68 S10       30.07S
WINONA         PTCLDY    70  57  64 CALM      30.07S
AUSTIN         MOCLDY    70  55  60 S10       30.07S
PRESTON        MOCLDY    68  59  72 S13       30.09S
$$
ABBREVIATIONS USED IN REMARKS
   TC - TEMPERATURES IN CELSIUS
  WCI - WIND CHILL INDEX
   HX - HEAT INDEX
  VSB - VISIBILITY
$$


USA.gov is the U.S. government's official web portal to all federal, state and local government web resources and services.